Location: *
(51.8167°N, 12.5000°E)
Time: 10:01:31
(UTC+00:00)

SJ-11-01 - Pass Details

Date: 16 September 2019
Orbit: 684 x 701 km, 98.0° (Epoch: 15 October)

Event Time Altitude Azimuth Distance (km) Brightness Sun altitude
Rises 18:14:48 0° 157° (SSE) 3,079 7.3 -8.7°
Reaches altitude 10° 18:17:03 10° 155° (SSE) 2,165 6.5 -9.0°
Maximum altitude 18:21:46 71° 72° (ENE) 747 4.3 -9.7°
Drops below altitude 10° 18:26:31 10° 349° (N) 2,177 7.3 -10.4°
Sets 18:28:47 0° 348° (NNW) 3,098 8.1 -10.7°
